Weather History for Trinidad, CO

Change the Weather History Date:

Thursday, October 31, 2013

  Actual Average Record
Temperature  
Mean Temperature 45 °F 47 °F  
Max Temperature 63 °F 63 °F 80 °F (1950)
Min Temperature 26 °F 32 °F 10 °F (1991)
Degree Days  
Heating Degree Days 20 18  
Month to date heating degree days 420 393  
Since 1 July heating degree days 461 501  
Cooling Degree Days 0 0  
Month to date cooling degree days 0 3  
Year to date cooling degree days 1068 719  
Moisture  
Dew Point 18 °F    
Average Humidity 49    
Maximum Humidity 85    
Minimum Humidity 12    
Precipitation  
Precipitation 0.00 in 0.03 in 1.61 in (1998)
Month to date precipitation 0.20 0.90  
Year to date precipitation 9.64 12.60  
Sea Level Pressure  
Sea Level Pressure 29.78 in    
Wind  
Wind Speed 9 mph (WNW)    
Max Wind Speed 23 mph    
Max Gust Speed 30 mph    
Visibility 10 miles    
Events      
T = Trace of Precipitation, MM = Missing Value Source: NWS Daily Summary

Daily Weather History Graph

Daily Weather History Graph

Search for Another Location

Airport:

Trip Planner

Search our weather history database for the weather conditions in past years. The results will help you decide how hot, cold, wet, or windy it might be!

Date:

Astronomy

Oct. 31, 2013 Rise Set
Actual Time 7:21 AM MDT 6:00 PM MDT
Civil Twilight 6:54 AM MDT 6:27 PM MDT
Nautical Twilight 6:23 AM MDT 6:57 PM MDT
Astronomical Twilight 5:53 AM MDT 7:28 PM MDT
Moon 4:16 AM MDT (10/31) 4:16 PM MDT (10/31)
Length of Visible Light 11h 32m
Length of Day
10h 39m
Waning Crescent, 9% of the Moon is Illuminated
Oct 31
Waning Crescent
Nov 3
New
Nov 9
First Quarter
Nov 17
Full
Nov 25
Last Quarter

Hourly Weather History & Observations

Time (MDT) Temp. Windchill Dew Point Humidity Pressure Visibility Wind Dir Wind Speed Gust Speed Precip Events Conditions
12:54 AM 39.0 °F 31.8 °F 30.0 °F 70% 29.71 in 10.0 mi NW 11.5 mph - N/A   Overcast
1:54 AM 39.0 °F 32.3 °F 28.9 °F 67% 29.73 in 10.0 mi NW 10.4 mph - N/A   Clear
2:54 AM 36.0 °F 29.6 °F 28.0 °F 73% 29.75 in 10.0 mi WNW 8.1 mph - N/A   Clear
3:54 AM 33.1 °F 27.7 °F 27.0 °F 78% 29.77 in 10.0 mi West 5.8 mph - N/A   Clear
4:54 AM 28.9 °F 21.1 °F 24.1 °F 82% 29.81 in 10.0 mi WSW 8.1 mph - N/A   Clear
5:54 AM 28.9 °F 20.4 °F 24.1 °F 82% 29.83 in 10.0 mi West 9.2 mph - N/A   Clear
6:54 AM 28.0 °F 20.0 °F 21.0 °F 75% 29.85 in 10.0 mi WSW 8.1 mph - N/A   Clear
7:54 AM 30.9 °F 24.3 °F 19.9 °F 64% 29.86 in 10.0 mi West 6.9 mph - N/A   Clear
8:54 AM 37.9 °F 30.9 °F 19.0 °F 47% 29.87 in 10.0 mi WSW 10.4 mph - N/A   Clear
9:54 AM 48.9 °F - 17.1 °F 28% 29.83 in 10.0 mi WSW 15.0 mph - N/A   Clear
10:54 AM 52.0 °F - 15.1 °F 23% 29.82 in 10.0 mi Variable 4.6 mph 17.3 mph N/A   Clear
11:54 AM 55.9 °F - 14.0 °F 19% 29.78 in 10.0 mi NW 10.4 mph - N/A   Clear
12:54 PM 57.0 °F - 12.9 °F 18% 29.75 in 10.0 mi Variable 3.5 mph - N/A   Clear
1:54 PM 60.1 °F - 10.0 °F 14% 29.70 in 10.0 mi NE 4.6 mph - N/A   Clear
2:54 PM 61.0 °F - 9.0 °F 13% 29.69 in 10.0 mi Variable 5.8 mph - N/A   Clear
3:54 PM 60.1 °F - 10.0 °F 14% 29.69 in 10.0 mi SE 9.2 mph - N/A   Clear
4:54 PM 59.0 °F - 10.0 °F 14% 29.73 in 10.0 mi ESE 8.1 mph - N/A   Clear
5:54 PM 55.0 °F - 9.0 °F 16% 29.75 in 10.0 mi SSE 3.5 mph - N/A   Clear
6:54 PM 52.0 °F - 10.0 °F 19% 29.79 in 10.0 mi NW 10.4 mph - N/A   Clear
7:54 PM 46.9 °F - 15.1 °F 28% 29.82 in 10.0 mi NW 11.5 mph - N/A   Clear
8:54 PM 46.0 °F 40.6 °F 19.9 °F 35% 29.83 in 10.0 mi NNW 11.5 mph - N/A   Clear
9:54 PM 46.0 °F 39.3 °F 17.1 °F 31% 29.81 in 10.0 mi NNW 16.1 mph - N/A   Clear
10:54 PM 46.0 °F 40.2 °F 17.1 °F 31% 29.82 in 10.0 mi NNW 12.7 mph - N/A   Clear
11:54 PM 37.0 °F 31.0 °F 16.0 °F 42% 29.85 in 10.0 mi West 8.1 mph - N/A   Clear